HORIZONS-2

Last updated on Sat Sep 05 2026 00:03:01 GMT+0000 (Coordinated Universal Time)

1 32388U 07063B 26247.58126514 -.00000261 00000+0 00000+0 0 9991 2 32388 2.7996 79.5843 0001759 82.7327 316.8590 1.00270201 68612
UTC large
Height (km)
Speed (km/s)
/
Latitude / Longitude
Inclination (degrees)
Orbital Period (minutes)
Azimuth
Elevation
Range (km)
Doppler Factor

Next 0 passes for location: London (51.5072 / 0.1276)

No passes found over London.
HORIZONS-2